Time,TemperatureF,DewpointF,PressureIn,WindDirection,WindDirectionDegrees,WindSpeedMPH,WindSpeedGustMPH,Humidity,HourlyPrecipIn,Conditions,Clouds,dailyrainin,SoftwareType,DateUTC
2013-06-01 00:00:00,69.4,63.7,29.96,South,171,0.0,0.0,82,0.00,,CLR,0.00,VWS V12.08,2013-06-01 04:00:00,
2013-06-01 00:01:00,69.4,63.7,29.96,South,171,0.0,0.0,82,0.00,,CLR,0.00,VWS V12.08,2013-06-01 04:01:00,
2013-06-01 00:10:00,69.1,63.7,29.96,South,171,0.0,0.0,83,0.00,,CLR,0.00,VWS V12.08,2013-06-01 04:10:00,
2013-06-01 00:11:00,69.1,63.7,29.96,South,171,0.0,0.0,83,0.00,,CLR,0.00,VWS V12.08,2013-06-01 04:11:00,
2013-06-01 00:20:00,69.1,63.7,29.96,South,171,0.0,0.0,83,0.00,,CLR,0.00,VWS V12.08,2013-06-01 04:20:00,
2013-06-01 00:21:00,69.1,63.7,29.96,South,171,0.0,0.0,83,0.00,,CLR,0.00,VWS V12.08,2013-06-01 04:21:00,
2013-06-01 00:30:00,69.1,64.1,29.96,South,171,0.0,0.0,84,0.00,,CLR,0.00,VWS V12.08,2013-06-01 04:30:00,
2013-06-01 00:31:00,69.1,64.1,29.96,South,171,0.0,0.0,84,0.00,,CLR,0.00,VWS V12.08,2013-06-01 04:31:00,
2013-06-01 00:40:00,69.1,64.4,29.96,South,171,0.0,0.0,85,0.00,,CLR,0.00,VWS V12.08,2013-06-01 04:40:00,
2013-06-01 00:41:00,69.1,64.4,29.96,South,171,0.0,0.0,85,0.00,,CLR,0.00,VWS V12.08,2013-06-01 04:41:00,
2013-06-01 00:50:00,69.1,64.7,29.96,South,171,0.0,0.0,86,0.00,,CLR,0.00,VWS V12.08,2013-06-01 04:50:00,
2013-06-01 00:51:00,69.1,64.7,29.96,South,171,0.0,0.0,86,0.00,,CLR,0.00,VWS V12.08,2013-06-01 04:51:00,
2013-06-01 01:00:00,68.9,64.5,29.96,South,171,0.0,0.0,86,0.00,,CLR,0.00,VWS V12.08,2013-06-01 05:00:00,
2013-06-01 01:01:00,68.9,64.6,29.96,South,171,0.0,0.0,86,0.00,,CLR,0.00,VWS V12.08,2013-06-01 05:01:00,
2013-06-01 01:10:00,68.9,64.9,29.96,South,171,0.0,0.0,87,0.00,,CLR,0.00,VWS V12.08,2013-06-01 05:10:00,
2013-06-01 01:11:00,68.9,64.9,29.96,South,171,0.0,0.0,87,0.00,,CLR,0.00,VWS V12.08,2013-06-01 05:11:00,
2013-06-01 01:20:00,68.8,65.1,29.95,South,171,0.0,0.0,88,0.00,,CLR,0.00,VWS V12.08,2013-06-01 05:20:00,
2013-06-01 01:21:00,68.8,65.1,29.95,South,171,0.0,0.0,88,0.00,,CLR,0.00,VWS V12.08,2013-06-01 05:21:00,
2013-06-01 01:30:00,68.6,65.2,29.96,South,171,0.0,0.0,89,0.00,,CLR,0.00,VWS V12.08,2013-06-01 05:30:00,
2013-06-01 01:31:00,68.6,65.2,29.96,South,171,0.0,0.0,89,0.00,,CLR,0.00,VWS V12.08,2013-06-01 05:31:00,
2013-06-01 01:40:00,68.4,65.0,29.96,South,171,0.0,0.0,89,0.00,,CLR,0.00,VWS V12.08,2013-06-01 05:40:00,
2013-06-01 01:41:00,68.4,65.0,29.96,South,171,0.0,0.0,89,0.00,,CLR,0.00,VWS V12.08,2013-06-01 05:41:00,
2013-06-01 01:50:00,68.3,65.3,29.95,South,171,0.0,0.0,90,0.00,,CLR,0.00,VWS V12.08,2013-06-01 05:50:00,
2013-06-01 01:51:00,68.3,65.3,29.95,South,171,0.0,0.0,90,0.00,,CLR,0.00,VWS V12.08,2013-06-01 05:51:00,
2013-06-01 02:00:00,68.1,65.4,29.95,South,171,0.0,0.0,91,0.00,,CLR,0.00,VWS V12.08,2013-06-01 06:00:00,
2013-06-01 02:01:00,68.1,65.4,29.95,South,171,0.0,0.0,91,0.00,,CLR,0.00,VWS V12.08,2013-06-01 06:01:00,
2013-06-01 02:10:00,67.9,65.5,29.95,South,171,0.0,0.0,92,0.00,,CLR,0.00,VWS V12.08,2013-06-01 06:10:00,
2013-06-01 02:11:00,67.9,65.5,29.95,South,171,0.0,0.0,92,0.00,,CLR,0.00,VWS V12.08,2013-06-01 06:11:00,
2013-06-01 02:20:00,67.8,65.4,29.95,South,171,0.0,0.0,92,0.00,,CLR,0.00,VWS V12.08,2013-06-01 06:20:00,
2013-06-01 02:21:00,67.8,65.4,29.95,South,171,0.0,0.0,92,0.00,,CLR,0.00,VWS V12.08,2013-06-01 06:21:00,
2013-06-01 02:30:00,67.6,65.5,29.95,South,171,0.0,0.0,93,0.00,,CLR,0.00,VWS V12.08,2013-06-01 06:30:00,
2013-06-01 02:31:00,67.6,65.5,29.95,South,171,0.0,0.0,93,0.00,,CLR,0.00,VWS V12.08,2013-06-01 06:31:00,
2013-06-01 02:40:00,67.4,65.3,29.95,South,171,0.0,0.0,93,0.00,,CLR,0.00,VWS V12.08,2013-06-01 06:40:00,
2013-06-01 02:41:00,67.4,65.3,29.95,South,171,0.0,0.0,93,0.00,,CLR,0.00,VWS V12.08,2013-06-01 06:41:00,
2013-06-01 02:50:00,67.4,65.6,29.94,South,171,0.0,0.0,94,0.00,,CLR,0.00,VWS V12.08,2013-06-01 06:50:00,
2013-06-01 02:51:00,67.4,65.6,29.94,South,171,0.0,0.0,94,0.00,,CLR,0.00,VWS V12.08,2013-06-01 06:51:00,
2013-06-01 03:00:00,67.3,65.8,29.94,South,171,0.0,0.0,95,0.00,,CLR,0.00,VWS V12.08,2013-06-01 07:00:00,
2013-06-01 03:01:00,67.3,65.8,29.94,South,171,0.0,0.0,95,0.00,,CLR,0.00,VWS V12.08,2013-06-01 07:01:00,
2013-06-01 03:10:00,67.1,65.6,29.94,South,171,0.0,0.0,95,0.00,,CLR,0.00,VWS V12.08,2013-06-01 07:10:00,
2013-06-01 03:11:00,67.1,65.6,29.94,South,171,0.0,0.0,95,0.00,,CLR,0.00,VWS V12.08,2013-06-01 07:11:00,
2013-06-01 03:20:00,67.1,65.9,29.94,South,171,0.0,0.0,96,0.00,,CLR,0.00,VWS V12.08,2013-06-01 07:20:00,
2013-06-01 03:21:00,67.1,65.9,29.94,South,171,0.0,0.0,96,0.00,,CLR,0.00,VWS V12.08,2013-06-01 07:21:00,
2013-06-01 03:30:00,66.9,65.7,29.94,South,171,0.0,0.0,96,0.00,,CLR,0.00,VWS V12.08,2013-06-01 07:30:00,
2013-06-01 03:31:00,66.9,65.7,29.94,South,171,0.0,0.0,96,0.00,,CLR,0.00,VWS V12.08,2013-06-01 07:31:00,
2013-06-01 03:40:00,66.8,65.6,29.94,South,171,0.0,0.0,96,0.00,,CLR,0.00,VWS V12.08,2013-06-01 07:40:00,
2013-06-01 03:41:00,66.8,65.6,29.94,South,171,0.0,0.0,96,0.00,,CLR,0.00,VWS V12.08,2013-06-01 07:41:00,
2013-06-01 03:50:00,66.6,65.7,29.94,South,171,0.0,0.0,97,0.00,,CLR,0.00,VWS V12.08,2013-06-01 07:50:00,
2013-06-01 03:51:00,66.6,65.7,29.94,South,171,0.0,0.0,97,0.00,,CLR,0.00,VWS V12.08,2013-06-01 07:51:00,
2013-06-01 04:00:00,66.6,65.7,29.94,South,171,0.0,0.0,97,0.00,,CLR,0.00,VWS V12.08,2013-06-01 08:00:00,
2013-06-01 04:01:00,66.6,65.7,29.94,South,171,0.0,0.0,97,0.00,,CLR,0.00,VWS V12.08,2013-06-01 08:01:00,
2013-06-01 04:10:00,66.4,65.5,29.94,South,171,0.0,0.0,97,0.00,,CLR,0.00,VWS V12.08,2013-06-01 08:10:00,
2013-06-01 04:11:00,66.4,65.5,29.94,South,171,0.0,0.0,97,0.00,,CLR,0.00,VWS V12.08,2013-06-01 08:11:00,
2013-06-01 04:20:00,66.3,65.7,29.94,South,171,0.0,0.0,98,0.00,,CLR,0.00,VWS V12.08,2013-06-01 08:20:00,
2013-06-01 04:21:00,66.3,65.7,29.94,South,171,0.0,0.0,98,0.00,,CLR,0.00,VWS V12.08,2013-06-01 08:21:00,
2013-06-01 04:30:00,66.1,65.5,29.94,South,171,0.0,0.0,98,0.00,,CLR,0.00,VWS V12.08,2013-06-01 08:30:00,
2013-06-01 04:31:00,66.1,65.5,29.94,South,171,0.0,0.0,98,0.00,,CLR,0.00,VWS V12.08,2013-06-01 08:31:00,
2013-06-01 04:40:00,66.1,65.5,29.94,South,171,0.0,0.0,98,0.00,,CLR,0.00,VWS V12.08,2013-06-01 08:40:00,
2013-06-01 04:41:00,66.1,65.5,29.94,South,171,0.0,0.0,98,0.00,,CLR,0.00,VWS V12.08,2013-06-01 08:41:00,
2013-06-01 04:50:00,66.1,65.5,29.94,South,171,0.0,0.0,98,0.00,,CLR,0.00,VWS V12.08,2013-06-01 08:50:00,
2013-06-01 04:51:00,66.1,65.5,29.94,South,171,0.0,0.0,98,0.00,,CLR,0.00,VWS V12.08,2013-06-01 08:51:00,
2013-06-01 05:00:00,66.1,65.5,29.94,South,171,0.0,0.0,98,0.00,,CLR,0.00,VWS V12.08,2013-06-01 09:00:00,
2013-06-01 05:01:00,66.1,65.5,29.94,South,171,0.0,0.0,98,0.00,,CLR,0.00,VWS V12.08,2013-06-01 09:01:00,
2013-06-01 05:10:00,66.0,65.7,29.94,South,171,0.0,0.0,99,0.00,,CLR,0.00,VWS V12.08,2013-06-01 09:10:00,
2013-06-01 05:11:00,66.0,65.7,29.94,South,171,0.0,0.0,99,0.00,,CLR,0.00,VWS V12.08,2013-06-01 09:11:00,
2013-06-01 05:20:00,65.8,65.5,29.94,South,171,0.0,0.0,99,0.00,,CLR,0.00,VWS V12.08,2013-06-01 09:20:00,
2013-06-01 05:21:00,65.8,65.5,29.94,South,171,0.0,0.0,99,0.00,,CLR,0.00,VWS V12.08,2013-06-01 09:21:00,
2013-06-01 05:30:00,65.8,65.5,29.94,South,171,0.0,0.0,99,0.00,,CLR,0.00,VWS V12.08,2013-06-01 09:30:00,
2013-06-01 05:31:00,65.8,65.5,29.94,South,171,0.0,0.0,99,0.00,,CLR,0.00,VWS V12.08,2013-06-01 09:31:00,
2013-06-01 05:40:00,65.8,65.5,29.94,South,171,0.0,0.0,99,0.00,,CLR,0.00,VWS V12.08,2013-06-01 09:40:00,
2013-06-01 05:41:00,65.8,65.5,29.94,South,171,0.0,0.0,99,0.00,,CLR,0.00,VWS V12.08,2013-06-01 09:41:00,
2013-06-01 05:50:00,65.6,65.3,29.94,South,171,0.0,0.0,99,0.00,,CLR,0.00,VWS V12.08,2013-06-01 09:50:00,
2013-06-01 05:51:00,65.6,65.3,29.94,South,171,0.0,0.0,99,0.00,,CLR,0.00,VWS V12.08,2013-06-01 09:51:00,
2013-06-01 06:00:00,65.6,65.3,29.95,South,171,0.0,0.0,99,0.00,,CLR,0.00,VWS V12.08,2013-06-01 10:00:00,
2013-06-01 06:01:00,65.6,65.3,29.95,South,171,0.0,0.0,99,0.00,,CLR,0.00,VWS V12.08,2013-06-01 10:01:00,
2013-06-01 06:10:00,65.8,65.5,29.95,South,171,0.0,0.0,99,0.00,,CLR,0.00,VWS V12.08,2013-06-01 10:10:00,
2013-06-01 06:11:00,65.8,65.5,29.95,South,171,0.0,0.0,99,0.00,,CLR,0.00,VWS V12.08,2013-06-01 10:11:00,
2013-06-01 06:20:00,66.0,66.0,29.95,South,171,0.0,0.0,100,0.00,,CLR,0.00,VWS V12.08,2013-06-01 10:20:00,
2013-06-01 06:21:00,66.0,66.0,29.95,South,171,0.0,0.0,100,0.00,,CLR,0.00,VWS V12.08,2013-06-01 10:21:00,
2013-06-01 06:30:00,66.3,66.3,29.95,South,171,0.0,0.0,100,0.00,,CLR,0.00,VWS V12.08,2013-06-01 10:30:00,
2013-06-01 06:31:00,66.3,66.3,29.95,South,171,0.0,0.0,100,0.00,,CLR,0.00,VWS V12.08,2013-06-01 10:31:00,
2013-06-01 06:40:00,66.6,66.6,29.95,South,184,0.0,0.0,100,0.00,,CLR,0.00,VWS V12.08,2013-06-01 10:40:00,
2013-06-01 06:41:00,66.6,66.6,29.95,South,184,0.0,0.0,100,0.00,,CLR,0.00,VWS V12.08,2013-06-01 10:41:00,
2013-06-01 06:50:00,67.1,67.1,29.96,South,184,0.0,0.0,100,0.00,,CLR,0.00,VWS V12.08,2013-06-01 10:50:00,
2013-06-01 06:51:00,67.1,67.1,29.96,South,184,0.0,0.0,100,0.00,,CLR,0.00,VWS V12.08,2013-06-01 10:51:00,
2013-06-01 07:00:00,67.6,67.6,29.96,SW,220,0.0,3.0,100,0.00,,CLR,0.00,VWS V12.08,2013-06-01 11:00:00,
2013-06-01 07:01:00,67.6,67.6,29.96,SW,220,0.0,3.0,100,0.00,,CLR,0.00,VWS V12.08,2013-06-01 11:01:00,
2013-06-01 07:10:00,68.3,68.3,29.96,SW,220,0.0,0.0,100,0.00,,CLR,0.00,VWS V12.08,2013-06-01 11:10:00,
2013-06-01 07:11:00,68.3,68.3,29.96,SW,220,0.0,0.0,100,0.00,,CLR,0.00,VWS V12.08,2013-06-01 11:11:00,
2013-06-01 07:20:00,68.9,68.6,29.96,SE,127,1.0,1.0,99,0.00,,CLR,0.00,VWS V12.08,2013-06-01 11:20:00,
2013-06-01 07:21:00,68.9,68.6,29.96,SE,127,1.0,1.0,99,0.00,,CLR,0.00,VWS V12.08,2013-06-01 11:21:00,
2013-06-01 07:30:00,69.6,68.4,29.96,North,360,0.0,3.0,96,0.00,,CLR,0.00,VWS V12.08,2013-06-01 11:30:00,
2013-06-01 07:31:00,69.6,68.4,29.96,North,360,0.0,3.0,96,0.00,,CLR,0.00,VWS V12.08,2013-06-01 11:31:00,
2013-06-01 07:40:00,70.4,68.3,29.96,NNE,32,1.0,2.0,93,0.00,,CLR,0.00,VWS V12.08,2013-06-01 11:40:00,
2013-06-01 07:41:00,70.4,68.3,29.96,NNE,32,1.0,2.0,93,0.00,,CLR,0.00,VWS V12.08,2013-06-01 11:41:00,
2013-06-01 07:50:00,71.3,67.9,29.96,SSW,209,0.0,3.0,89,0.00,,CLR,0.00,VWS V12.08,2013-06-01 11:50:00,
2013-06-01 07:51:00,71.3,67.9,29.96,SSW,209,0.0,3.0,89,0.00,,CLR,0.00,VWS V12.08,2013-06-01 11:51:00,
2013-06-01 08:00:00,72.1,68.0,29.96,SW,225,0.0,3.0,87,0.00,,CLR,0.00,VWS V12.08,2013-06-01 12:00:00,
2013-06-01 08:01:00,72.1,68.0,29.96,SW,225,0.0,3.0,87,0.00,,CLR,0.00,VWS V12.08,2013-06-01 12:01:00,
2013-06-01 08:10:00,73.2,68.1,29.96,NNW,342,0.0,3.0,84,0.00,,CLR,0.00,VWS V12.08,2013-06-01 12:10:00,
2013-06-01 08:11:00,73.2,68.1,29.96,NNW,342,0.0,3.0,84,0.00,,CLR,0.00,VWS V12.08,2013-06-01 12:11:00,
2013-06-01 08:20:00,73.9,67.7,29.97,West,277,0.0,3.0,81,0.00,,CLR,0.00,VWS V12.08,2013-06-01 12:20:00,
2013-06-01 08:21:00,73.9,67.7,29.97,West,277,0.0,3.0,81,0.00,,CLR,0.00,VWS V12.08,2013-06-01 12:21:00,
2013-06-01 08:30:00,74.6,68.4,29.96,SSE,167,4.0,6.0,81,0.00,,CLR,0.00,VWS V12.08,2013-06-01 12:30:00,
2013-06-01 08:31:00,74.6,68.4,29.96,SSE,167,4.0,6.0,81,0.00,,CLR,0.00,VWS V12.08,2013-06-01 12:31:00,
2013-06-01 08:40:00,75.1,68.5,29.96,SE,140,4.0,4.0,80,0.00,,CLR,0.00,VWS V12.08,2013-06-01 12:40:00,
2013-06-01 08:41:00,75.1,68.5,29.96,SE,140,4.0,4.0,80,0.00,,CLR,0.00,VWS V12.08,2013-06-01 12:41:00,
2013-06-01 08:50:00,75.6,67.9,29.96,SSW,211,0.0,5.0,77,0.00,,CLR,0.00,VWS V12.08,2013-06-01 12:50:00,
2013-06-01 08:51:00,75.6,67.9,29.96,SSW,211,0.0,5.0,77,0.00,,CLR,0.00,VWS V12.08,2013-06-01 12:51:00,
2013-06-01 09:00:00,76.0,67.9,29.96,WSW,257,1.0,4.0,76,0.00,,CLR,0.00,VWS V12.08,2013-06-01 13:00:00,
2013-06-01 09:01:00,76.0,67.9,29.96,WSW,257,1.0,4.0,76,0.00,,CLR,0.00,VWS V12.08,2013-06-01 13:01:00,
2013-06-01 09:10:00,76.5,68.0,29.96,East,82,2.0,5.0,75,0.00,,CLR,0.00,VWS V12.08,2013-06-01 13:10:00,
2013-06-01 09:11:00,76.5,68.0,29.96,East,82,2.0,5.0,75,0.00,,CLR,0.00,VWS V12.08,2013-06-01 13:11:00,
2013-06-01 09:20:00,77.0,67.7,29.96,SSW,193,4.0,4.0,73,0.00,,CLR,0.00,VWS V12.08,2013-06-01 13:20:00,
2013-06-01 09:21:00,77.0,67.7,29.96,SSW,193,4.0,4.0,73,0.00,,CLR,0.00,VWS V12.08,2013-06-01 13:21:00,
2013-06-01 09:30:00,77.4,68.9,29.95,West,276,2.0,5.0,75,0.00,,CLR,0.00,VWS V12.08,2013-06-01 13:30:00,
2013-06-01 09:31:00,77.4,68.9,29.95,West,276,2.0,5.0,75,0.00,,CLR,0.00,VWS V12.08,2013-06-01 13:31:00,
2013-06-01 09:40:00,77.9,68.2,29.95,SSE,148,0.0,6.0,72,0.00,,CLR,0.00,VWS V12.08,2013-06-01 13:40:00,
2013-06-01 09:41:00,77.9,68.2,29.95,SSE,148,0.0,6.0,72,0.00,,CLR,0.00,VWS V12.08,2013-06-01 13:41:00,
2013-06-01 09:50:00,78.3,68.9,29.94,SW,214,0.0,5.0,73,0.00,,CLR,0.00,VWS V12.08,2013-06-01 13:50:00,
2013-06-01 09:51:00,78.3,68.9,29.94,SW,214,0.0,5.0,73,0.00,,CLR,0.00,VWS V12.08,2013-06-01 13:51:00,
2013-06-01 10:00:00,79.0,68.8,29.94,SSW,210,2.0,4.0,71,0.00,,CLR,0.00,VWS V12.08,2013-06-01 14:00:00,
2013-06-01 10:01:00,79.0,68.8,29.94,SSW,210,2.0,4.0,71,0.00,,CLR,0.00,VWS V12.08,2013-06-01 14:01:00,
2013-06-01 10:10:00,79.4,69.2,29.94,South,183,0.0,4.0,71,0.00,,CLR,0.00,VWS V12.08,2013-06-01 14:10:00,
2013-06-01 10:11:00,79.4,69.2,29.94,South,183,0.0,4.0,71,0.00,,CLR,0.00,VWS V12.08,2013-06-01 14:11:00,
2013-06-01 10:20:00,79.6,68.1,29.94,SW,214,1.0,7.0,68,0.00,,CLR,0.00,VWS V12.08,2013-06-01 14:20:00,
2013-06-01 10:21:00,79.6,68.1,29.94,SW,214,1.0,7.0,68,0.00,,CLR,0.00,VWS V12.08,2013-06-01 14:21:00,
2013-06-01 10:30:00,79.9,68.8,29.93,North,5,0.0,11.0,69,0.00,,CLR,0.00,VWS V12.08,2013-06-01 14:30:00,
2013-06-01 10:31:00,79.9,68.8,29.93,North,5,0.0,11.0,69,0.00,,CLR,0.00,VWS V12.08,2013-06-01 14:31:00,
2013-06-01 10:40:00,80.5,67.7,29.93,SSW,205,0.0,4.0,65,0.00,,CLR,0.00,VWS V12.08,2013-06-01 14:40:00,
2013-06-01 10:41:00,80.5,67.7,29.93,SSW,205,0.0,4.0,65,0.00,,CLR,0.00,VWS V12.08,2013-06-01 14:41:00,
2013-06-01 10:50:00,81.1,68.7,29.93,South,185,0.0,9.0,66,0.00,,CLR,0.00,VWS V12.08,2013-06-01 14:50:00,
2013-06-01 10:51:00,81.1,68.7,29.93,South,185,0.0,9.0,66,0.00,,CLR,0.00,VWS V12.08,2013-06-01 14:51:00,
2013-06-01 11:00:00,81.6,68.2,29.93,ESE,113,0.0,10.0,64,0.00,,CLR,0.00,VWS V12.08,2013-06-01 15:00:00,
2013-06-01 11:01:00,81.6,68.2,29.93,ESE,113,0.0,10.0,64,0.00,,CLR,0.00,VWS V12.08,2013-06-01 15:01:00,
2013-06-01 11:10:00,82.2,69.3,29.93,SSW,193,1.0,6.0,65,0.00,,CLR,0.00,VWS V12.08,2013-06-01 15:10:00,
2013-06-01 11:11:00,82.2,69.3,29.93,SSW,193,1.0,6.0,65,0.00,,CLR,0.00,VWS V12.08,2013-06-01 15:11:00,
2013-06-01 11:20:00,83.0,70.5,29.94,SSE,155,4.0,9.0,66,0.00,,CLR,0.00,VWS V12.08,2013-06-01 15:20:00,
2013-06-01 11:21:00,83.0,70.5,29.94,SSE,155,4.0,9.0,66,0.00,,CLR,0.00,VWS V12.08,2013-06-01 15:21:00,
2013-06-01 11:30:00,83.2,69.3,29.93,WSW,252,0.0,8.0,63,0.00,,CLR,0.00,VWS V12.08,2013-06-01 15:30:00,
2013-06-01 11:31:00,83.2,69.3,29.93,WSW,252,0.0,8.0,63,0.00,,CLR,0.00,VWS V12.08,2013-06-01 15:31:00,
2013-06-01 11:40:00,84.0,69.1,29.93,East,88,0.0,9.0,61,0.00,,CLR,0.00,VWS V12.08,2013-06-01 15:40:00,
2013-06-01 11:41:00,84.0,69.1,29.93,East,88,0.0,9.0,61,0.00,,CLR,0.00,VWS V12.08,2013-06-01 15:41:00,
2013-06-01 11:50:00,84.9,69.0,29.93,North,9,1.0,10.0,59,0.00,,CLR,0.00,VWS V12.08,2013-06-01 15:50:00,
2013-06-01 11:51:00,84.9,69.0,29.93,North,9,1.0,10.0,59,0.00,,CLR,0.00,VWS V12.08,2013-06-01 15:51:00,
2013-06-01 12:00:00,86.3,70.8,29.93,SE,134,0.0,10.0,60,0.00,,CLR,0.00,VWS V12.08,2013-06-01 16:00:00,
2013-06-01 12:01:00,86.3,70.8,29.93,SE,134,0.0,10.0,60,0.00,,CLR,0.00,VWS V12.08,2013-06-01 16:01:00,
2013-06-01 12:10:00,87.4,69.8,29.93,SSW,201,0.0,5.0,56,0.00,,CLR,0.00,VWS V12.08,2013-06-01 16:10:00,
2013-06-01 12:11:00,87.4,69.8,29.93,SSW,201,0.0,5.0,56,0.00,,CLR,0.00,VWS V12.08,2013-06-01 16:11:00,
2013-06-01 12:20:00,88.8,70.6,29.92,South,186,0.0,5.0,55,0.00,,CLR,0.00,VWS V12.08,2013-06-01 16:20:00,
2013-06-01 12:21:00,88.8,70.6,29.92,South,186,0.0,5.0,55,0.00,,CLR,0.00,VWS V12.08,2013-06-01 16:21:00,
2013-06-01 12:30:00,88.8,68.9,29.92,SE,140,4.0,5.0,52,0.00,,CLR,0.00,VWS V12.08,2013-06-01 16:30:00,
2013-06-01 12:31:00,88.8,68.9,29.92,SE,140,4.0,5.0,52,0.00,,CLR,0.00,VWS V12.08,2013-06-01 16:31:00,
2013-06-01 12:40:00,88.8,71.1,29.92,WSW,244,6.0,7.0,56,0.00,,CLR,0.00,VWS V12.08,2013-06-01 16:40:00,
2013-06-01 12:41:00,88.8,71.1,29.92,WSW,244,6.0,7.0,56,0.00,,CLR,0.00,VWS V12.08,2013-06-01 16:41:00,
2013-06-01 12:50:00,89.3,68.2,29.91,WSW,244,3.0,9.0,50,0.00,,CLR,0.00,VWS V12.08,2013-06-01 16:50:00,
2013-06-01 12:51:00,89.3,68.2,29.91,WSW,244,3.0,9.0,50,0.00,,CLR,0.00,VWS V12.08,2013-06-01 16:51:00,
2013-06-01 13:00:00,89.0,69.7,29.91,SSE,159,0.0,7.0,53,0.00,,CLR,0.00,VWS V12.08,2013-06-01 17:00:00,
2013-06-01 13:01:00,89.0,69.7,29.91,SSE,159,0.0,7.0,53,0.00,,,0.00,VWS V12.08,2013-06-01 17:01:00,
2013-06-01 13:10:00,89.3,67.1,29.91,West,262,1.0,7.0,48,0.00,,CLR,0.00,VWS V12.08,2013-06-01 17:10:00,
2013-06-01 13:11:00,89.3,67.1,29.91,West,262,1.0,7.0,48,0.00,,,0.00,VWS V12.08,2013-06-01 17:11:00,
2013-06-01 13:20:00,89.9,69.9,29.90,South,177,3.0,9.0,52,0.00,,CLR,0.00,VWS V12.08,2013-06-01 17:20:00,
2013-06-01 13:21:00,89.9,69.9,29.90,South,177,3.0,9.0,52,0.00,,,0.00,VWS V12.08,2013-06-01 17:21:00,
2013-06-01 13:30:00,90.3,68.0,29.90,ENE,77,0.0,10.0,48,0.00,,CLR,0.00,VWS V12.08,2013-06-01 17:30:00,
2013-06-01 13:31:00,90.3,68.0,29.90,ENE,77,0.0,10.0,48,0.00,,,0.00,VWS V12.08,2013-06-01 17:31:00,
2013-06-01 13:40:00,90.7,69.5,29.90,WSW,250,2.0,13.0,50,0.00,,CLR,0.00,VWS V12.08,2013-06-01 17:40:00,
2013-06-01 13:41:00,90.7,69.5,29.90,WSW,250,2.0,13.0,50,0.00,,,0.00,VWS V12.08,2013-06-01 17:41:00,
2013-06-01 13:50:00,91.2,70.0,29.89,South,188,1.0,6.0,50,0.00,,CLR,0.00,VWS V12.08,2013-06-01 17:50:00,
2013-06-01 13:51:00,91.2,70.0,29.89,South,188,1.0,6.0,50,0.00,,,0.00,VWS V12.08,2013-06-01 17:51:00,
2013-06-01 14:00:00,91.0,70.4,29.89,SSW,203,0.0,7.0,51,0.00,,CLR,0.00,VWS V12.08,2013-06-01 18:00:00,
2013-06-01 14:01:00,91.0,70.4,29.89,SSW,203,0.0,7.0,51,0.00,,FEW042,0.00,VWS V12.08,2013-06-01 18:01:00,
2013-06-01 14:10:00,91.2,70.6,29.89,North,355,0.0,7.0,51,0.00,,CLR,0.00,VWS V12.08,2013-06-01 18:10:00,
2013-06-01 14:11:00,91.2,70.6,29.89,North,355,0.0,7.0,51,0.00,,FEW042,0.00,VWS V12.08,2013-06-01 18:11:00,
2013-06-01 14:20:00,91.4,71.3,29.88,SE,143,3.0,11.0,52,0.00,,CLR,0.00,VWS V12.08,2013-06-01 18:20:00,
2013-06-01 14:21:00,91.4,71.3,29.88,SE,143,3.0,11.0,52,0.00,,FEW042,0.00,VWS V12.08,2013-06-01 18:21:00,
2013-06-01 14:30:00,91.6,69.2,29.88,NE,52,3.0,6.0,48,0.00,,CLR,0.00,VWS V12.08,2013-06-01 18:30:00,
2013-06-01 14:31:00,91.6,69.2,29.88,NE,52,3.0,6.0,48,0.00,,FEW042,0.00,VWS V12.08,2013-06-01 18:31:00,
2013-06-01 14:40:00,92.1,69.0,29.88,South,180,6.0,7.0,47,0.00,,CLR,0.00,VWS V12.08,2013-06-01 18:40:00,
2013-06-01 14:41:00,92.1,69.0,29.88,South,180,6.0,7.0,47,0.00,,FEW042,0.00,VWS V12.08,2013-06-01 18:41:00,
2013-06-01 14:50:00,91.8,68.7,29.88,SSW,197,2.0,12.0,47,0.00,,CLR,0.00,VWS V12.08,2013-06-01 18:50:00,
2013-06-01 14:51:00,91.8,68.7,29.88,SSW,197,2.0,12.0,47,0.00,,FEW042,0.00,VWS V12.08,2013-06-01 18:51:00,
2013-06-01 15:00:00,91.0,66.7,29.88,South,191,5.0,11.0,45,0.00,,CLR,0.00,VWS V12.08,2013-06-01 19:00:00,
2013-06-01 15:01:00,91.0,66.7,29.88,South,191,5.0,11.0,45,0.00,,CLR,0.00,VWS V12.08,2013-06-01 19:01:00,
2013-06-01 15:10:00,92.3,67.9,29.88,SSW,198,1.0,5.0,45,0.00,,CLR,0.00,VWS V12.08,2013-06-01 19:10:00,
2013-06-01 15:11:00,92.3,67.9,29.88,SSW,198,1.0,5.0,45,0.00,,CLR,0.00,VWS V12.08,2013-06-01 19:11:00,
2013-06-01 15:20:00,92.7,66.3,29.87,SSE,148,3.0,4.0,42,0.00,,CLR,0.00,VWS V12.08,2013-06-01 19:20:00,
2013-06-01 15:21:00,92.7,66.3,29.87,SSE,148,3.0,4.0,42,0.00,,CLR,0.00,VWS V12.08,2013-06-01 19:21:00,
2013-06-01 15:30:00,92.7,66.3,29.86,WSW,252,0.0,4.0,42,0.00,,CLR,0.00,VWS V12.08,2013-06-01 19:30:00,
2013-06-01 15:31:00,92.7,66.3,29.86,WSW,252,0.0,4.0,42,0.00,,CLR,0.00,VWS V12.08,2013-06-01 19:31:00,
2013-06-01 15:40:00,92.9,68.4,29.86,SSW,195,3.0,5.0,45,0.00,,CLR,0.00,VWS V12.08,2013-06-01 19:40:00,
2013-06-01 15:41:00,92.9,68.4,29.86,SSW,195,3.0,5.0,45,0.00,,CLR,0.00,VWS V12.08,2013-06-01 19:41:00,
2013-06-01 15:50:00,92.9,67.1,29.86,SE,140,0.0,7.0,43,0.00,,CLR,0.00,VWS V12.08,2013-06-01 19:50:00,
2013-06-01 15:51:00,92.9,67.1,29.86,SE,140,0.0,7.0,43,0.00,,CLR,0.00,VWS V12.08,2013-06-01 19:51:00,
2013-06-01 16:00:00,92.5,66.8,29.86,ENE,74,1.0,7.0,43,0.00,,CLR,0.00,VWS V12.08,2013-06-01 20:00:00,
2013-06-01 16:01:00,92.5,66.8,29.86,ENE,74,1.0,7.0,43,0.00,,FEW050,0.00,VWS V12.08,2013-06-01 20:01:00,
2013-06-01 16:10:00,91.4,67.7,29.86,SW,231,1.0,4.0,46,0.00,,CLR,0.00,VWS V12.08,2013-06-01 20:10:00,
2013-06-01 16:11:00,91.4,67.7,29.86,SW,231,1.0,4.0,46,0.00,,FEW050,0.00,VWS V12.08,2013-06-01 20:11:00,
2013-06-01 16:20:00,91.8,65.5,29.86,ENE,78,2.0,5.0,42,0.00,,CLR,0.00,VWS V12.08,2013-06-01 20:20:00,
2013-06-01 16:21:00,91.8,65.5,29.86,ENE,78,2.0,5.0,42,0.00,,FEW050,0.00,VWS V12.08,2013-06-01 20:21:00,
2013-06-01 16:30:00,92.1,67.7,29.86,SSW,205,3.0,6.0,45,0.00,,CLR,0.00,VWS V12.08,2013-06-01 20:30:00,
2013-06-01 16:31:00,92.1,67.7,29.86,SSW,205,3.0,6.0,45,0.00,,FEW050,0.00,VWS V12.08,2013-06-01 20:31:00,
2013-06-01 16:40:00,91.6,64.6,29.86,West,269,1.0,14.0,41,0.00,,CLR,0.00,VWS V12.08,2013-06-01 20:40:00,
2013-06-01 16:41:00,91.6,64.6,29.86,West,269,1.0,14.0,41,0.00,,FEW050,0.00,VWS V12.08,2013-06-01 20:41:00,
2013-06-01 16:50:00,91.6,63.9,29.85,West,271,1.0,6.0,40,0.00,,CLR,0.00,VWS V12.08,2013-06-01 20:50:00,
2013-06-01 16:51:00,91.6,63.9,29.85,West,271,1.0,6.0,40,0.00,,FEW050,0.00,VWS V12.08,2013-06-01 20:51:00,
2013-06-01 17:00:00,91.2,65.6,29.86,SW,216,0.0,9.0,43,0.00,,CLR,0.00,VWS V12.08,2013-06-01 21:00:00,
2013-06-01 17:01:00,91.2,65.6,29.86,SW,216,0.0,9.0,43,0.00,,CLR,0.00,VWS V12.08,2013-06-01 21:01:00,
2013-06-01 17:10:00,91.0,66.1,29.86,SSE,167,0.0,4.0,44,0.00,,CLR,0.00,VWS V12.08,2013-06-01 21:10:00,
2013-06-01 17:11:00,91.0,66.1,29.86,SSE,167,0.0,4.0,44,0.00,,CLR,0.00,VWS V12.08,2013-06-01 21:11:00,
2013-06-01 17:20:00,90.1,64.6,29.85,SW,215,1.0,7.0,43,0.00,,CLR,0.00,VWS V12.08,2013-06-01 21:20:00,
2013-06-01 17:21:00,90.1,64.6,29.85,SW,215,1.0,7.0,43,0.00,,CLR,0.00,VWS V12.08,2013-06-01 21:21:00,
2013-06-01 17:30:00,89.7,65.6,29.85,SSE,163,0.0,4.0,45,0.00,,CLR,0.00,VWS V12.08,2013-06-01 21:30:00,
2013-06-01 17:31:00,89.7,65.6,29.85,SSE,163,0.0,4.0,45,0.00,,CLR,0.00,VWS V12.08,2013-06-01 21:31:00,
2013-06-01 17:40:00,88.8,66.6,29.85,NNW,336,0.0,2.0,48,0.00,,CLR,0.00,VWS V12.08,2013-06-01 21:40:00,
2013-06-01 17:41:00,88.8,66.6,29.85,NNW,336,0.0,2.0,48,0.00,,CLR,0.00,VWS V12.08,2013-06-01 21:41:00,
2013-06-01 17:50:00,88.0,68.2,29.84,NE,44,0.0,3.0,52,0.00,,CLR,0.00,VWS V12.08,2013-06-01 21:50:00,
2013-06-01 17:51:00,88.0,68.2,29.84,NE,44,0.0,3.0,52,0.00,,CLR,0.00,VWS V12.08,2013-06-01 21:51:00,
2013-06-01 18:00:00,87.6,66.1,29.84,South,169,0.0,5.0,49,0.00,,CLR,0.00,VWS V12.08,2013-06-01 22:00:00,
2013-06-01 18:01:00,87.6,66.1,29.84,South,169,0.0,5.0,49,0.00,,CLR,0.00,VWS V12.08,2013-06-01 22:01:00,
2013-06-01 18:10:00,87.0,65.0,29.84,South,169,0.0,3.0,48,0.00,,CLR,0.00,VWS V12.08,2013-06-01 22:10:00,
2013-06-01 18:11:00,87.0,65.0,29.84,South,169,0.0,3.0,48,0.00,,CLR,0.00,VWS V12.08,2013-06-01 22:11:00,
2013-06-01 18:20:00,86.7,67.5,29.83,SE,130,0.0,7.0,53,0.00,,CLR,0.00,VWS V12.08,2013-06-01 22:20:00,
2013-06-01 18:21:00,86.7,67.5,29.83,SE,130,0.0,7.0,53,0.00,,CLR,0.00,VWS V12.08,2013-06-01 22:21:00,
2013-06-01 18:30:00,86.1,66.4,29.83,SSE,150,0.0,4.0,52,0.00,,CLR,0.00,VWS V12.08,2013-06-01 22:30:00,
2013-06-01 18:31:00,86.1,66.4,29.83,SSE,150,0.0,4.0,52,0.00,,CLR,0.00,VWS V12.08,2013-06-01 22:31:00,
2013-06-01 18:40:00,85.7,65.5,29.83,SW,221,1.0,9.0,51,0.00,,CLR,0.00,VWS V12.08,2013-06-01 22:40:00,
2013-06-01 18:41:00,85.7,65.5,29.83,SW,221,1.0,9.0,51,0.00,,CLR,0.00,VWS V12.08,2013-06-01 22:41:00,
2013-06-01 18:50:00,85.3,67.3,29.83,South,180,0.0,5.0,55,0.00,,CLR,0.00,VWS V12.08,2013-06-01 22:50:00,
2013-06-01 18:51:00,85.3,67.3,29.83,South,180,0.0,5.0,55,0.00,,CLR,0.00,VWS V12.08,2013-06-01 22:51:00,
2013-06-01 19:00:00,84.7,67.3,29.83,SSW,193,0.0,3.0,56,0.00,,CLR,0.00,VWS V12.08,2013-06-01 23:00:00,
2013-06-01 19:01:00,84.7,67.3,29.83,SSW,193,0.0,3.0,56,0.00,,CLR,0.00,VWS V12.08,2013-06-01 23:01:00,
2013-06-01 19:10:00,84.1,67.2,29.83,East,92,0.0,7.0,57,0.00,,CLR,0.00,VWS V12.08,2013-06-01 23:10:00,
2013-06-01 19:11:00,84.1,67.2,29.83,East,92,0.0,7.0,57,0.00,,CLR,0.00,VWS V12.08,2013-06-01 23:11:00,
2013-06-01 19:20:00,84.0,69.6,29.84,ENE,68,0.0,2.0,62,0.00,,CLR,0.00,VWS V12.08,2013-06-01 23:20:00,
2013-06-01 19:21:00,84.0,69.6,29.84,ENE,68,0.0,2.0,62,0.00,,CLR,0.00,VWS V12.08,2013-06-01 23:21:00,
2013-06-01 19:30:00,83.2,68.8,29.84,SE,128,0.0,2.0,62,0.00,,CLR,0.00,VWS V12.08,2013-06-01 23:30:00,
2013-06-01 19:31:00,83.2,68.8,29.84,SE,128,0.0,2.0,62,0.00,,CLR,0.00,VWS V12.08,2013-06-01 23:31:00,
2013-06-01 19:40:00,82.2,68.8,29.84,SE,128,0.0,0.0,64,0.00,,CLR,0.00,VWS V12.08,2013-06-01 23:40:00,
2013-06-01 19:41:00,82.2,68.8,29.84,SE,128,0.0,0.0,64,0.00,,CLR,0.00,VWS V12.08,2013-06-01 23:41:00,
2013-06-01 19:50:00,81.6,68.7,29.84,SE,128,0.0,0.0,65,0.00,,CLR,0.00,VWS V12.08,2013-06-01 23:50:00,
2013-06-01 19:51:00,81.6,68.7,29.84,SE,128,0.0,0.0,65,0.00,,CLR,0.00,VWS V12.08,2013-06-01 23:51:00,
2013-06-01 20:00:00,80.9,68.0,29.85,SE,128,0.0,0.0,65,0.00,,CLR,0.00,VWS V12.08,2013-06-02 00:00:00,
2013-06-01 20:01:00,80.9,68.0,29.85,SE,128,0.0,0.0,65,0.00,,CLR,0.00,VWS V12.08,2013-06-02 00:01:00,
2013-06-01 20:10:00,80.1,69.0,29.85,SE,128,0.0,0.0,69,0.00,,CLR,0.00,VWS V12.08,2013-06-02 00:10:00,
2013-06-01 20:11:00,80.1,69.0,29.85,SE,128,0.0,0.0,69,0.00,,CLR,0.00,VWS V12.08,2013-06-02 00:11:00,
2013-06-01 20:20:00,79.2,68.2,29.84,SE,128,0.0,0.0,69,0.00,,CLR,0.00,VWS V12.08,2013-06-02 00:20:00,
2013-06-01 20:21:00,79.2,68.2,29.84,SE,128,0.0,0.0,69,0.00,,CLR,0.00,VWS V12.08,2013-06-02 00:21:00,
2013-06-01 20:30:00,78.6,68.4,29.85,SE,128,0.0,0.0,71,0.00,,CLR,0.00,VWS V12.08,2013-06-02 00:30:00,
2013-06-01 20:31:00,78.6,68.4,29.85,SE,128,0.0,0.0,71,0.00,,CLR,0.00,VWS V12.08,2013-06-02 00:31:00,
2013-06-01 20:40:00,77.9,68.6,29.85,SE,128,0.0,0.0,73,0.00,,CLR,0.00,VWS V12.08,2013-06-02 00:40:00,
2013-06-01 20:41:00,77.9,68.6,29.85,SE,128,0.0,0.0,73,0.00,,CLR,0.00,VWS V12.08,2013-06-02 00:41:00,
2013-06-01 20:50:00,77.2,67.9,29.85,SE,128,0.0,0.0,73,0.00,,CLR,0.00,VWS V12.08,2013-06-02 00:50:00,
2013-06-01 20:51:00,77.2,67.9,29.85,SE,128,0.0,0.0,73,0.00,,CLR,0.00,VWS V12.08,2013-06-02 00:51:00,
2013-06-01 21:00:00,76.7,67.8,29.85,SE,128,0.0,0.0,74,0.00,,CLR,0.00,VWS V12.08,2013-06-02 01:00:00,
2013-06-01 21:01:00,76.7,67.8,29.85,SE,128,0.0,0.0,74,0.00,,CLR,0.00,VWS V12.08,2013-06-02 01:01:00,
2013-06-01 21:10:00,76.1,67.6,29.85,SE,128,0.0,0.0,75,0.00,,CLR,0.00,VWS V12.08,2013-06-02 01:10:00,
2013-06-01 21:11:00,76.1,67.6,29.85,SE,128,0.0,0.0,75,0.00,,CLR,0.00,VWS V12.08,2013-06-02 01:11:00,
2013-06-01 21:20:00,75.8,67.3,29.85,SE,128,0.0,0.0,75,0.00,,CLR,0.00,VWS V12.08,2013-06-02 01:20:00,
2013-06-01 21:21:00,75.8,67.3,29.85,SE,128,0.0,0.0,75,0.00,,CLR,0.00,VWS V12.08,2013-06-02 01:21:00,
2013-06-01 21:30:00,75.4,67.7,29.85,SE,128,0.0,0.0,77,0.00,,CLR,0.00,VWS V12.08,2013-06-02 01:30:00,
2013-06-01 21:31:00,75.4,67.7,29.85,SE,128,0.0,0.0,77,0.00,,CLR,0.00,VWS V12.08,2013-06-02 01:31:00,
2013-06-01 21:40:00,75.1,68.2,29.85,SE,128,0.0,0.0,79,0.00,,CLR,0.00,VWS V12.08,2013-06-02 01:40:00,
2013-06-01 21:41:00,75.1,68.2,29.85,SE,128,0.0,0.0,79,0.00,,CLR,0.00,VWS V12.08,2013-06-02 01:41:00,
2013-06-01 21:50:00,74.7,67.8,29.86,SE,128,0.0,0.0,79,0.00,,CLR,0.00,VWS V12.08,2013-06-02 01:50:00,
2013-06-01 21:51:00,74.7,67.8,29.86,SE,128,0.0,0.0,79,0.00,,CLR,0.00,VWS V12.08,2013-06-02 01:51:00,
2013-06-01 22:00:00,74.4,67.5,29.85,SE,128,0.0,0.0,79,0.00,,CLR,0.00,VWS V12.08,2013-06-02 02:00:00,
2013-06-01 22:01:00,74.4,67.5,29.85,SE,128,0.0,0.0,79,0.00,,CLR,0.00,VWS V12.08,2013-06-02 02:01:00,
2013-06-01 22:10:00,74.2,67.6,29.85,SE,128,0.0,0.0,80,0.00,,CLR,0.00,VWS V12.08,2013-06-02 02:10:00,
2013-06-01 22:11:00,74.2,67.6,29.85,SE,128,0.0,0.0,80,0.00,,CLR,0.00,VWS V12.08,2013-06-02 02:11:00,
2013-06-01 22:20:00,74.0,67.4,29.85,SE,128,0.0,0.0,80,0.00,,CLR,0.00,VWS V12.08,2013-06-02 02:20:00,
2013-06-01 22:21:00,74.0,67.4,29.85,SE,128,0.0,0.0,80,0.00,,CLR,0.00,VWS V12.08,2013-06-02 02:21:00,
2013-06-01 22:30:00,73.7,67.2,29.85,SE,128,0.0,0.0,80,0.00,,CLR,0.00,VWS V12.08,2013-06-02 02:30:00,
2013-06-01 22:31:00,73.7,67.2,29.85,SE,128,0.0,0.0,80,0.00,,CLR,0.00,VWS V12.08,2013-06-02 02:31:00,
2013-06-01 22:40:00,73.5,67.3,29.85,SE,128,0.0,0.0,81,0.00,,CLR,0.00,VWS V12.08,2013-06-02 02:40:00,
2013-06-01 22:41:00,73.5,67.3,29.85,SE,128,0.0,0.0,81,0.00,,CLR,0.00,VWS V12.08,2013-06-02 02:41:00,
2013-06-01 22:50:00,73.5,67.3,29.85,SE,128,0.0,0.0,81,0.00,,CLR,0.00,VWS V12.08,2013-06-02 02:50:00,
2013-06-01 22:51:00,73.5,67.3,29.85,SE,128,0.0,0.0,81,0.00,,CLR,0.00,VWS V12.08,2013-06-02 02:51:00,
2013-06-01 23:00:00,73.5,67.0,29.85,SE,128,0.0,0.0,80,0.00,,CLR,0.00,VWS V12.08,2013-06-02 03:00:00,
2013-06-01 23:01:00,73.5,67.0,29.85,SE,128,0.0,0.0,80,0.00,,CLR,0.00,VWS V12.08,2013-06-02 03:01:00,
2013-06-01 23:10:00,73.3,67.5,29.85,SE,128,0.0,0.0,82,0.00,,CLR,0.00,VWS V12.08,2013-06-02 03:10:00,
2013-06-01 23:11:00,73.3,67.5,29.85,SE,128,0.0,0.0,82,0.00,,CLR,0.00,VWS V12.08,2013-06-02 03:11:00,
2013-06-01 23:20:00,73.2,67.4,29.85,SE,128,0.0,0.0,82,0.00,,CLR,0.00,VWS V12.08,2013-06-02 03:20:00,
2013-06-01 23:21:00,73.2,67.4,29.85,SE,128,0.0,0.0,82,0.00,,CLR,0.00,VWS V12.08,2013-06-02 03:21:00,
2013-06-01 23:30:00,73.0,67.2,29.85,SE,128,0.0,0.0,82,0.00,,CLR,0.00,VWS V12.08,2013-06-02 03:30:00,
2013-06-01 23:31:00,73.0,67.2,29.85,SE,128,0.0,0.0,82,0.00,,CLR,0.00,VWS V12.08,2013-06-02 03:31:00,
2013-06-01 23:40:00,73.2,67.7,29.85,SE,128,0.0,0.0,83,0.00,,CLR,0.00,VWS V12.08,2013-06-02 03:40:00,
2013-06-01 23:41:00,73.2,67.7,29.85,SE,128,0.0,0.0,83,0.00,,CLR,0.00,VWS V12.08,2013-06-02 03:41:00,
2013-06-01 23:50:00,73.7,67.5,29.85,SE,128,0.0,0.0,81,0.00,,CLR,0.00,VWS V12.08,2013-06-02 03:50:00,
2013-06-01 23:51:00,73.7,67.5,29.85,SE,128,0.0,0.0,81,0.00,,CLR,0.00,VWS V12.08,2013-06-02 03:51:00,